Temperature
17 16 16 16 15 15 15 15 15 15 15 14 14 14 14 14 13 13 13 13 13 13 13 12 12 12 12 11 11 11 11 11 11 11 10 10 10 11 11 11 11 11 11
16 16 16 16 15 15 15 15 15 15 15 14 14 14 14 13 13 13 13 13 13 13 12 12 12 12 12 11 11 11 11 11 11 10 10 10 10 10 10 10 11 11 10
16 16 16 15 15 15 15 15 15 15 14 14 14 14 13 13 13 13 13 13 12 12 12 12 12 11 11 11 11 11 11 10 10 10 10 10 10 10 10 10 10 10 10
15 15 15 15 15 15 14 14 14 14 14 14 14 14 13 13 13 13 13 12 12 12 12 12 11 11 11 11 11 11 10 10 10 10 10 10 10 10 10 10 10 10 10
15 15 15 15 15 14 14 14 14 14 14 14 14 13 13 13 13 13 12 12 12 12 12 11 11 11 11 11 10 10 10 10 10 10 10 10 10 9 9 9 10 10 10
15 15 15 14 14 14 14 14 14 13 13 13 13 13 13 13 12 12 12 12 12 11 11 11 11 11 11 10 10 10 10 10 10 10 9 9 9 9 9 9 9 9 9
14 14 14 14 14 14 13 13 13 13 13 13 13 13 12 12 12 12 12 12 12 11 11 11 11 11 10 10 10 10 10 9 9 9 9 9 9 9 9 9 9 9 9
14 14 14 14 13 13 13 13 13 13 13 13 13 12 12 12 12 12 12 11 11 11 11 11 11 11 10 10 10 10 9 9 9 9 9 9 9 9 8 8 8 8 9
14 14 13 13 13 13 13 12 12 12 12 12 12 12 12 12 11 11 11 11 11 10 10 10 10 10 10 10 9 9 9 9 9 9 8 8 8 8 8 8 8 8 8
13 13 13 13 13 12 12 12 12 12 12 11 11 11 11 11 11 11 10 10 10 10 10 10 10 9 9 9 9 9 9 9 9 8 8 8 8 8 8 8 8 7 7
13 13 12 12 12 12 12 12 11 11 11 11 11 11 11 10 10 10 10 10 10 9 9 9 9 9 9 9 9 9 9 8 8 8 8 8 8 8 8 7 7 7 7
12 12 12 12 12 12 11 11 11 11 10 10 10 10 10 10 10 9 9 9 9 9 9 9 8 8 8 8 8 8 8 8 8 8 8 8 8 8 7 7 7 7 7
12 12 12 11 11 11 11 11 10 10 10 10 9 9 9 9 9 9 9 8 8 8 8 8 8 8 7 7 7 7 7 7 7 7 7 7 7 7 7 7 7 7 7
11 11 11 11 11 11 10 10 10 10 9 9 9 9 9 8 8 8 8 8 8 8 7 7 7 7 7 7 7 6 6 6 6 6 6 6 6 6 6 6 6 6 7
11 11 10 10 10 10 10 10 9 9 9 9 9 8 8 8 8 8 8 8 7 7 7 7 7 7 6 6 6 6 6 6 6 6 6 6 6 6 6 6 6 6 6
10 10 10 10 10 9 9 9 9 9 8 8 8 8 8 8 8 8 7 7 7 7 7 6 6 6 6 6 6 5 5 5 5 5 5 5 5 5 5 5 5 5 5
10 10 9 9 9 9 9 9 8 8 8 8 8 7 7 7 7 7 7 7 7 6 6 6 6 5 5 5 5 5 5 5 5 5 5 5 5 5 5 5 5 5 5
9 9 9 9 8 8 8 8 8 8 8 8 7 7 7 7 7 6 6 6 6 6 5 5 5 5 5 5 5 4 4 4 4 4 4 4 4 4 4 4 4 4 4
9 9 8 8 8 8 8 8 8 8 8 7 7 7 7 6 6 6 6 6 5 5 5 5 5 5 4 4 4 4 4 4 4 4 4 4 3 3 4 4 4 4 4
8 8 8 8 7 7 7 7 7 7 7 7 7 7 6 6 6 5 5 5 5 5 5 4 4 4 4 4 4 4 3 3 3 3 3 3 3 3 3 3 3 3 3
8 8 8 7 7 7 7 7 7 7 7 7 6 6 6 5 5 5 5 5 5 4 4 4 4 4 4 3 3 3 3 3 3 3 3 3 3 3 3 3 3 3 3
7 7 7 7 7 7 7 7 6 6 6 6 6 5 5 5 5 5 4 4 4 4 4 4 3 3 3 3 3 3 3 3 3 3 2 2 2 2 2 2 2 2 2
7 7 7 7 7 6 6 6 6 6 6 5 5 5 5 4 4 4 4 4 4 4 4 3 3 3 3 3 3 3 3 3 3 2 2 2 2 2 2 2 2 2 2
6 6 6 6 6 6 6 6 6 5 5 5 5 5 4 4 4 4 4 4 3 3 3 3 3 3 3 3 3 3 2 2 2 2 2 2 2 2 2 2 2 2 1
6 6 6 6 6 5 5 5 5 5 5 4 4 4 4 4 4 3 3 3 3 3 3 3 3 3 3 3 2 2 2 2 2 2 2 1 1 1 1 1 1 1 1
5 5 5 5 5 5 5 5 5 5 4 4 4 4 4 3 3 3 3 3 3 3 3 2 2 2 2 2 2 2 2 2 2 1 1 1 1 1 1 1 1 0 0
Wind_Speed
5 5 5 5 4 4 4 5 5 4 5 5 5 5 5 4 4 5 4 4 4 2 1 2 1 1 1 1 1 1 1 2 2 2 2 2 1 2 1 2 2 2 2
5 5 6 5 5 4 4 4 5 5 5 5 5 5 5 5 4 5 5 4 4 3 2 2 2 2 2 1 2 2 1 1 2 1 1 1 2 2 2 2 2 2 2
4 5 5 5 5 4 4 4 5 5 5 5 5 6 5 5 5 5 5 4 4 4 4 4 3 3 2 2 2 2 1 1 1 1 1 1 2 2 2 2 2 2 2
4 5 5 5 5 5 4 4 4 4 5 5 5 6 6 6 5 5 4 4 3 3 3 4 4 4 4 4 3 3 2 2 1 1 0 1 2 2 1 1 2 2 3
5 5 5 4 4 4 4 3 3 3 4 4 4 4 4 5 5 5 5 4 4 3 2 3 4 4 5 4 3 3 3 2 2 1 0 1 2 1 1 1 2 3 3
6 6 5 4 4 4 4 4 4 3 3 3 4 3 3 3 5 7 6 5 4 4 4 3 2 3 3 3 4 4 5 4 3 2 2 2 3 2 1 1 1 1 3
6 6 5 5 4 4 4 4 4 4 3 3 3 3 3 2 4 6 7 5 5 5 5 4 2 2 2 2 2 2 2 3 5 5 4 4 3 3 2 1 1 2 3
6 5 5 5 5 4 3 4 4 3 4 3 3 3 3 2 3 4 6 4 3 3 4 4 4 3 3 4 3 1 1 1 3 3 5 5 4 4 4 3 3 2 3
5 5 5 5 5 4 4 4 3 3 3 3 3 3 3 2 3 5 5 3 2 2 2 2 3 3 4 5 4 3 1 2 2 2 3 3 2 2 2 2 1 1 2
6 6 5 6 6 6 5 4 2 3 4 3 3 3 3 3 2 4 5 3 3 2 1 1 3 3 3 4 4 4 3 3 1 1 1 1 1 1 1 2 3 2 1
5 5 5 5 6 6 4 3 3 3 3 3 3 2 2 2 2 3 4 3 3 3 2 1 1 2 3 3 3 3 3 2 1 1 0 1 1 1 1 1 2 3 3
4 4 5 5 5 4 4 3 3 4 4 3 3 2 1 1 1 2 3 3 3 3 2 2 2 2 2 2 2 1 2 2 1 1 0 1 1 2 2 2 2 3 4
4 4 4 4 4 4 5 5 4 4 4 3 4 3 2 1 1 2 2 3 4 2 2 2 2 2 2 1 1 1 1 1 1 1 1 2 2 3 2 1 1 2 3
5 4 4 4 4 4 4 4 4 4 4 4 4 4 2 2 1 1 1 2 2 2 1 2 3 2 2 1 1 1 0 1 1 1 2 2 2 1 1 1 1 2 2
4 4 4 4 4 4 3 3 5 5 6 6 6 6 5 4 4 3 3 2 2 2 2 2 2 1 1 1 1 1 0 0 0 1 1 1 1 1 2 1 1 1 2
4 3 3 3 3 3 3 1 2 3 4 5 6 6 5 5 4 5 4 4 4 5 4 2 2 1 2 1 1 1 1 1 1 1 1 1 1 2 2 2 1 1 3
4 4 3 3 3 4 4 4 3 1 2 3 4 5 5 5 6 6 5 5 5 6 3 2 2 2 2 2 2 2 2 2 1 1 1 2 2 2 2 2 2 2 3
4 4 4 4 4 4 5 5 4 4 3 2 3 4 5 6 6 6 6 4 3 3 3 3 3 3 3 2 2 2 2 1 1 1 2 2 2 2 2 2 2 3 4
4 4 4 4 4 4 4 4 4 4 4 3 2 2 4 5 5 5 6 3 4 4 4 3 3 3 3 3 3 2 2 2 2 2 2 2 2 2 2 3 3 4 4
4 6 5 4 4 4 4 4 4 4 4 4 4 3 3 3 3 4 3 3 4 4 4 4 3 3 3 3 3 2 2 2 2 2 2 3 3 2 3 4 3 4 4
4 5 6 5 5 5 5 5 5 5 4 4 4 4 6 5 5 5 4 4 4 4 4 4 4 4 4 3 3 3 3 3 3 3 3 3 3 3 3 3 4 4 4
4 4 4 5 5 5 5 5 5 5 5 4 3 4 6 4 4 4 4 4 4 4 4 4 4 4 4 4 4 4 4 4 4 4 3 3 3 3 3 3 3 3 3
4 4 4 4 4 5 5 4 5 5 5 5 4 4 4 4 4 4 4 4 4 3 3 3 4 4 4 5 5 5 5 5 4 4 3 3 3 3 3 3 4 4 4
3 4 4 4 4 4 4 4 4 4 4 5 5 5 5 5 4 4 4 3 3 3 3 3 4 4 5 4 4 5 5 6 5 4 5 4 4 3 3 3 4 5 5
3 3 4 4 4 4 4 4 4 4 4 4 4 4 4 4 4 4 4 4 4 4 4 4 4 4 5 5 5 5 5 6 5 5 4 4 4 4 4 4 4 4 5
3 3 3 3 3 4 4 4 4 4 4 4 4 4 4 4 4 4 4 4 4 4 4 4 5 5 6 5 6 6 6 6 6 6 5 4 4 4 4 4 4 4 4
Wind_Direction
171 168 159 165 160 159 174 183 184 178 170 168 168 162 163 161 156 151 157 150 145 150 151 142 150 121 116 119 122 122 130 144 174 264 282 299 305 301 314 279 269 263 273
178 170 165 163 157 160 177 186 178 175 177 174 169 164 172 169 163 160 161 153 152 155 163 150 163 129 112 115 118 124 139 155 160 216 287 320 297 284 294 302 307 285 264
167 158 156 153 161 174 186 184 177 173 171 169 168 171 174 171 167 169 161 157 161 168 171 169 174 148 142 149 137 140 152 131 133 167 256 292 297 313 323 308 313 306 300
160 160 163 170 171 177 183 178 178 172 168 168 172 174 172 168 167 167 154 154 162 175 179 178 179 177 178 173 168 169 151 124 112 124 243 298 295 305 344 305 315 309 300
163 169 182 184 169 161 167 170 168 160 161 168 161 165 169 166 171 163 159 159 161 172 176 180 185 183 185 183 181 177 157 146 137 146 213 317 304 321 294 275 288 305 298
167 180 180 167 164 168 171 166 164 162 158 151 156 161 172 191 184 173 164 164 172 175 183 190 185 176 178 170 166 167 166 167 179 181 210 229 256 259 274 276 292 344 307
176 179 172 166 170 181 173 165 173 175 159 156 161 158 168 192 179 177 174 167 175 182 184 181 182 183 158 164 154 140 170 183 185 184 198 223 231 232 216 242 243 240 252
178 176 173 169 175 177 164 171 178 173 169 169 171 170 168 186 175 166 157 149 160 178 187 184 176 184 185 160 152 134 192 234 219 198 202 224 230 221 205 214 227 257 281
182 185 183 177 173 171 177 188 182 166 170 174 171 164 163 183 159 155 135 131 141 164 184 179 174 191 193 163 152 161 214 277 254 226 217 218 227 216 160 124 63 14 304
193 191 185 179 173 175 185 184 176 173 177 172 169 172 172 181 168 150 137 136 143 164 172 190 188 186 181 165 163 170 198 243 270 296 318 340 10 358 163 167 181 194 261
191 178 178 180 179 177 175 167 164 165 162 164 164 165 168 166 163 149 146 150 164 165 176 220 232 184 169 168 164 178 202 193 189 191 216 316 356 346 308 242 200 194 213
177 176 180 179 177 167 164 172 165 160 162 163 154 157 179 178 160 158 153 158 153 162 183 209 225 184 167 156 163 217 199 136 114 110 115 260 278 280 272 260 256 238 230
168 181 187 182 178 172 172 176 173 172 174 178 173 181 197 206 212 179 165 166 162 156 179 186 180 152 137 154 181 163 131 118 132 147 207 253 259 261 271 288 291 284 285
175 185 184 180 183 181 180 179 180 187 188 187 186 190 194 203 218 205 189 179 164 157 159 163 146 120 99 86 77 89 124 162 169 201 238 263 285 298 291 274 278 294 297
183 188 184 180 175 178 187 195 197 203 198 191 196 190 188 203 218 197 172 178 177 171 136 106 91 90 82 48 28 28 39 104 225 246 233 274 296 297 293 295 277 286 280
180 189 190 182 176 173 176 203 238 208 203 196 193 190 203 202 188 183 180 173 158 149 131 143 159 176 191 198 207 257 266 260 263 258 248 262 270 273 291 307 298 266 274
190 194 191 185 180 182 184 189 202 230 193 190 195 195 195 186 182 183 180 174 167 151 152 180 192 205 215 218 223 228 243 255 259 258 264 273 278 280 285 290 291 286 279
198 202 196 191 190 193 195 196 194 191 199 222 220 197 188 182 180 180 174 155 172 174 195 199 207 210 212 217 224 229 238 251 261 261 266 276 278 281 288 285 284 279 277
203 203 197 192 196 198 194 192 194 195 198 199 195 198 179 170 169 175 166 178 191 202 209 211 210 210 214 217 221 226 226 234 246 255 264 268 269 271 275 276 278 287 286
211 213 196 188 192 193 193 194 196 196 197 197 199 196 174 156 169 186 194 201 202 208 212 214 214 215 216 216 218 217 221 231 240 244 253 255 257 257 263 269 274 278 280
207 206 202 199 200 199 199 200 200 197 199 203 206 201 182 180 191 198 203 209 213 213 212 213 215 216 218 215 214 216 220 231 235 240 248 253 254 258 264 267 271 272 282
205 204 203 204 204 203 202 200 196 196 199 200 201 203 197 193 198 203 212 220 220 215 209 206 212 216 214 211 214 219 224 231 237 239 245 250 253 257 260 267 276 282 286
199 202 205 207 204 203 201 197 195 197 198 200 197 195 198 207 211 213 218 220 215 215 206 202 211 219 219 217 215 214 224 231 234 230 237 245 253 257 258 265 272 281 282
198 199 202 203 196 193 195 197 198 198 198 200 200 201 202 206 214 217 219 216 211 210 202 201 209 217 219 221 224 223 224 228 226 220 218 232 242 251 256 264 269 271 272
195 196 199 200 196 194 195 197 198 196 198 202 204 204 203 207 213 215 213 209 205 208 206 204 208 214 218 222 226 228 233 234 229 222 215 217 236 243 249 257 262 268 267
193 194 200 201 201 200 200 201 201 199 203 208 205 202 203 207 211 214 210 204 205 209 211 209 213 215 220 224 228 233 236 234 230 225 216 214 229 241 246 251 259 261 263
Height
1506 1508 1508 1510 1511 1513 1514 1516 1517 1518 1518 1519 1520 1521 1521 1522 1522 1523 1523 1523 1523 1523 1523 1523 1522 1522 1522 1522 1522 1522 1522 1522 1522 1521 1521 1521 1521 1520 1519 1518 1518 1517 1517
1504 1505 1506 1508 1509 1510 1511 1513 1514 1515 1516 1517 1518 1519 1519 1520 1520 1521 1521 1521 1521 1521 1521 1520 1520 1520 1520 1520 1520 1520 1520 1520 1520 1519 1519 1519 1518 1517 1517 1516 1515 1515 1515
1501 1502 1504 1505 1506 1507 1509 1510 1511 1512 1513 1514 1515 1516 1516 1517 1518 1518 1519 1519 1519 1518 1518 1518 1518 1518 1518 1518 1518 1518 1518 1518 1518 1517 1516 1516 1516 1515 1514 1514 1513 1513 1512
1498 1500 1501 1502 1503 1504 1506 1507 1509 1510 1510 1511 1512 1513 1514 1515 1515 1516 1516 1516 1516 1516 1516 1516 1516 1516 1515 1515 1515 1515 1515 1515 1515 1515 1514 1514 1513 1513 1512 1511 1511 1510 1510
1495 1496 1497 1499 1501 1502 1503 1504 1506 1507 1508 1509 1510 1511 1511 1512 1512 1513 1513 1513 1513 1513 1513 1513 1513 1513 1513 1513 1513 1513 1513 1513 1513 1512 1512 1511 1511 1510 1510 1509 1509 1508 1507
1492 1493 1495 1497 1498 1500 1501 1502 1503 1504 1505 1506 1506 1507 1508 1509 1510 1510 1510 1510 1510 1510 1510 1510 1511 1511 1511 1511 1511 1511 1511 1511 1510 1510 1509 1509 1508 1508 1507 1507 1506 1505 1504
1489 1491 1492 1494 1495 1497 1498 1499 1500 1500 1502 1502 1503 1504 1505 1505 1506 1506 1507 1507 1507 1507 1507 1507 1508 1508 1508 1508 1508 1508 1508 1508 1508 1508 1507 1506 1506 1506 1505 1505 1504 1503 1502
1486 1487 1489 1490 1492 1493 1495 1495 1496 1497 1498 1499 1500 1500 1501 1502 1503 1503 1504 1504 1504 1504 1504 1504 1505 1505 1505 1505 1505 1505 1505 1505 1504 1504 1504 1504 1504 1504 1503 1503 1502 1501 1500
1483 1484 1485 1487 1488 1490 1491 1492 1493 1494 1494 1495 1496 1496 1497 1498 1499 1500 1500 1500 1500 1501 1501 1501 1501 1501 1502 1502 1502 1502 1502 1502 1502 1501 1501 1501 1501 1501 1501 1500 1499 1498 1496
1480 1481 1482 1484 1485 1486 1487 1488 1489 1490 1491 1492 1492 1493 1494 1495 1495 1496 1497 1497 1497 1497 1497 1497 1497 1498 1498 1498 1498 1498 1498 1498 1498 1498 1498 1498 1498 1497 1497 1497 1496 1495 1494
1477 1478 1479 1480 1481 1483 1484 1485 1486 1487 1488 1488 1489 1490 1490 1491 1492 1492 1493 1493 1493 1493 1493 1493 1493 1494 1494 1495 1495 1495 1495 1495 1495 1495 1494 1494 1494 1494 1493 1493 1493 1492 1491
1474 1475 1476 1477 1478 1479 1480 1481 1482 1483 1484 1484 1485 1486 1487 1487 1488 1489 1489 1490 1490 1490 1490 1490 1491 1491 1491 1491 1492 1492 1492 1491 1491 1491 1491 1491 1490 1490 1490 1490 1489 1489 1488
1471 1472 1473 1474 1475 1476 1477 1477 1478 1479 1479 1480 1481 1482 1483 1484 1484 1485 1486 1487 1487 1487 1487 1487 1488 1488 1488 1488 1488 1488 1488 1488 1488 1487 1487 1487 1487 1487 1487 1486 1485 1485 1485
1468 1469 1470 1471 1471 1472 1473 1474 1474 1475 1475 1476 1477 1478 1479 1480 1480 1481 1481 1482 1483 1483 1484 1484 1484 1484 1485 1485 1485 1485 1485 1484 1484 1484 1484 1484 1483 1483 1483 1482 1482 1481 1480
1465 1465 1466 1467 1468 1468 1469 1470 1471 1471 1472 1473 1473 1474 1475 1475 1476 1477 1477 1478 1479 1479 1480 1480 1480 1480 1481 1481 1481 1481 1481 1481 1481 1481 1480 1480 1480 1479 1479 1478 1478 1477 1476
1460 1461 1462 1463 1464 1465 1465 1467 1467 1469 1469 1470 1471 1471 1472 1473 1474 1474 1475 1475 1476 1476 1476 1476 1476 1476 1477 1477 1477 1477 1478 1477 1478 1477 1477 1476 1476 1476 1475 1475 1474 1474 1472
1457 1457 1458 1459 1460 1461 1462 1462 1463 1464 1465 1466 1467 1467 1468 1469 1469 1470 1471 1472 1472 1472 1472 1472 1472 1473 1473 1474 1474 1474 1474 1474 1474 1474 1473 1473 1473 1472 1471 1471 1470 1469 1468
1453 1453 1454 1455 1456 1457 1458 1458 1459 1459 1460 1461 1462 1463 1464 1465 1465 1466 1467 1467 1467 1467 1467 1468 1468 1469 1470 1470 1471 1471 1471 1470 1470 1470 1470 1469 1469 1468 1468 1467 1466 1465 1464
1449 1449 1450 1451 1452 1453 1454 1454 1455 1456 1456 1457 1458 1459 1459 1460 1461 1462 1462 1462 1462 1463 1463 1464 1464 1465 1466 1466 1467 1467 1467 1466 1467 1466 1466 1466 1465 1465 1464 1463 1462 1461 1460
1444 1445 1446 1447 1448 1449 1449 1450 1451 1451 1452 1453 1453 1454 1455 1456 1456 1456 1457 1457 1458 1459 1459 1460 1460 1461 1462 1462 1462 1463 1462 1462 1462 1462 1462 1462 1461 1460 1460 1459 1458 1457 1456
1439 1441 1442 1442 1443 1444 1445 1445 1446 1447 1448 1448 1449 1450 1451 1451 1451 1452 1452 1453 1454 1454 1455 1456 1456 1457 1457 1458 1458 1458 1458 1458 1458 1458 1458 1457 1457 1456 1455 1455 1454 1453 1452
1434 1435 1436 1437 1438 1439 1440 1441 1442 1443 1444 1444 1445 1446 1447 1447 1447 1447 1448 1449 1450 1450 1451 1452 1452 1453 1453 1454 1454 1454 1454 1454 1454 1454 1454 1453 1453 1452 1451 1451 1450 1449 1448
1430 1431 1432 1433 1434 1435 1436 1436 1437 1438 1439 1440 1441 1441 1442 1443 1443 1443 1444 1444 1445 1446 1447 1447 1448 1448 1449 1449 1450 1450 1449 1449 1450 1449 1449 1449 1448 1448 1447 1446 1446 1445 1444
1425 1426 1427 1428 1429 1430 1431 1432 1433 1434 1435 1436 1436 1437 1437 1438 1439 1439 1440 1440 1441 1442 1442 1443 1443 1444 1444 1445 1445 1445 1445 1446 1445 1445 1445 1444 1444 1443 1443 1442 1441 1440 1439
1421 1422 1422 1423 1424 1425 1426 1427 1428 1429 1430 1431 1431 1432 1433 1433 1434 1434 1435 1436 1436 1437 1438 1438 1439 1439 1440 1440 1441 1441 1441 1441 1441 1440 1440 1439 1439 1438 1438 1437 1436 1435 1434
1417 1418 1418 1419 1420 1421 1422 1423 1424 1425 1425 1426 1427 1427 1428 1429 1430 1430 1431 1431 1432 1432 1433 1434 1434 1435 1435 1436 1436 1436 1436 1436 1436 1436 1435 1434 1434 1433 1433 1432 1431 1430 1429